星链-1567 (STARLINK-1567 )

导读

STARLINK-1567是美国星链计划中的一颗卫星,于2020年8月7日发射入轨,归属SpaceX公司运营,属于星链低轨互联网卫星星座组网成员,主要为全球提供高速卫星互联网接入服务,承载着拓展星链网络覆盖范围、提升全球宽带通信服务能力的任务,是星链大规模组网部署进程中的重要卫星之一。

基本信息
目录编号:
46038
目录名称:
STARLINK-1567
国际标识:
2020-055M
轨道中心:
EARTH
卫星名称:
星链-1567
卫星全名:
星链-1567 (STARLINK-1567 )
卫星状态:
已陨落 最后检测时间 2026-05-10
发射日期:
2020-08-07 UTC
国别 :
美国 (US)
星等 :
--
轨道信息
数据来源 国际轨道数据
星历时间: 2026-05-10T05:57:32+0800
轨道信息已过期34天
半长轴: 6541.961km
偏心率: 0.0005674
轨道倾角: 53.067°
近地点辐角 278.812°
升交点赤经 182.547°
平近点角 81.229°
近地点: 160.112km
远地点: 167.536km
周期: 87.765分钟
每日圈数: 16.407444
详细信息
固有亮度:
5
最大亮度:
2.5
卫星平台:
Starlink V1.0
覆盖范围:
全球
运营商:
太空探索技术公司
运营商所在国:
美国
制造商(研发单位):
太空探索技术公司
制造商所在国:
美国
使用方式:
暂无
卫星简介
星链(Starlink)计划是由太空探索技术公司(SpaceX)提出的一个巨型低轨卫星互联网星座项目,计划在2019年至2024年间在太空搭建由约1.2万颗卫星组成的“星链”网络,其中1584颗将部署在地球上空550千米处的近地轨道,并从2020年开始工作。该卫星仍在工作。